Location: Beetenbrück
(52.8113°N, 9.5946°E)
Time: 21:36:25
(UTC+00:00)

ADEOS - Pass Details

Date: 14 April 2026
Orbit: 790 x 791 km, 98.8° (Epoch: 12 May)

Event Time Altitude Azimuth Distance (km) Brightness Sun altitude
Exits shadow 19:03:14 - 148° (SSE) 2,919 6.0 -7.0°
Reaches altitude 10° 19:04:40 10° 145° (SE) 2,355 5.5 -7.2°
Maximum altitude 19:09:46 58° 68° (ENE) 923 3.7 -7.9°
Drops below altitude 10° 19:14:53 10° 350° (N) 2,371 6.6 -8.6°
Sets 19:17:15 0° 347° (NNW) 3,305 7.5 -8.9°
